Погода в Сантьяго

Чили     33°28′39″S   70°38′32″W
темп.,
°C
ветер,
м/с
пор.,
м/с
влажн.,
%
обл.,
%
осадки,
мм/ч
давл.,
гПа
погр.,
м
11 мая, вт
вт1123:00+15ююз11490 0.0 101674
02:00+14ююз00490 0.0 101615
05:00+14ю11470 0.0 101511
08:00+14ююв01420 0.0 101511
11:00+19юв00260 0.0 1015261
14:00+23юз11150 0.0 1013526
17:00+23з12161 0.0 1012243
20:00+19юз11250 0.0 101411
12 мая, ср
ср1223:00+17ююв11290 0.0 101511
02:00+16в11281 0.0 101412
05:00+15ссв00265 0.0 101310
08:00+15юз11240 0.0 101511
11:00+20зюз11150 0.0 1013225
14:00+24зюз12124 0.0 1011587
17:00+23зюз12152 0.0 1011281
20:00+20сз012030 0.0 101311
13 мая, чт
чт1323:00+18юз11244 0.0 101314
02:00+16зюз213091 0.0 101432
05:00+14ююз113597 0.0 101413
08:00+15в113144 0.0 101613
11:00+20сз0120100 0.0 1016200
14:00+24юз111487 0.0 1014443
17:00+23зюз221871 0.0 1014246
20:00+20юз112554 0.0 101611
14 мая, пт
пт1423:00+18юз1130100 0.0 101611
02:00+17юз113245 0.0 101511
05:00+16юз0035100 0.0 101511
08:00+16вюв0035100 0.0 101611
11:00+20ссв0124100 0.0 1016218
14:00+23зюз2221100 0.0 1014632
17:00+23зюз1126100 0.0 1014315
20:00+19юз2234100 0.0 101582
15 мая, сб
сб1523:00+17ююз003843 0.0 101614
02:00+16ю113995 0.0 101516
05:00+16ю1140100 0.0 101512
08:00+15ю1140100 0.0 101613
11:00+19ссз0030100 0.0 1015205
14:00+24юз11220 0.0 1014459
17:00+23з2224100 0.0 1014201
20:00+20зюз1133100 0.0 101638